Location: Bergnershof
(48.9468°N, 10.9431°E)
Time: 05:11:51
(UTC+00:00)

Cosmos 1486 Rocket - Pass Details

Date: 03 March 2021
Orbit: 758 x 784 km, 74.1° (Epoch: 11 April)

Event Time Altitude Azimuth Distance (km) Brightness Sun altitude
Rises 17:51:43 0° 335° (NNW) 3,255 7.6 -8.8°
Reaches altitude 10° 17:54:06 10° 335° (NNW) 2,328 6.9 -9.2°
Maximum altitude 17:59:23 79° 250° (WSW) 796 4.2 -10.1°
Drops below altitude 10° 18:04:41 10° 164° (SSE) 2,328 6.3 -10.9°
Sets 18:07:03 0° 163° (SSE) 3,254 7.0 -11.3°
